Theta_e
338 338 340 340 329 326 329 334 332 334 332 332 333 333 334 336 334 333 339 335 332 337 336 334 334 334 333 331 329 331 334 334 334 334 335 335 334 332 330 328 326 324 322 321 321 318 318 323 327
338 339 338 336 327 329 330 331 335 333 333 333 334 334 335 337 338 339 339 337 337 338 338 335 334 333 333 332 334 332 331 330 331 333 333 334 332 329 326 323 317 313 312 312 314 316 317 321 323
337 337 336 331 331 329 332 332 333 333 335 337 336 335 334 336 339 339 340 339 338 339 336 335 333 332 334 334 334 330 327 327 331 333 333 331 329 326 321 316 314 312 313 311 310 311 311 312 319
336 337 336 335 339 337 330 332 336 335 336 336 337 337 338 337 337 341 340 340 336 334 333 335 332 332 332 334 333 329 324 321 327 332 332 330 327 324 320 316 317 320 323 325 325 321 313 312 317
334 336 333 336 339 338 334 335 335 334 335 336 337 338 340 340 340 340 340 338 336 331 335 335 331 331 333 334 332 329 325 322 319 326 328 325 324 323 320 318 320 325 323 324 326 326 322 319 318
333 336 336 337 338 336 338 337 336 334 336 338 338 337 337 342 341 340 339 334 336 331 327 327 327 330 331 332 330 327 326 323 321 317 319 322 320 320 317 319 320 325 322 323 323 324 319 319 321
332 333 338 336 337 338 338 339 338 337 337 338 339 335 332 340 335 330 329 328 327 324 323 322 324 327 332 331 329 327 325 323 319 313 318 321 320 318 318 318 319 322 319 317 317 317 317 317 318
335 333 336 336 337 339 338 339 337 339 339 340 338 332 333 340 328 327 327 324 322 318 317 318 322 328 333 330 328 327 324 323 317 311 315 319 319 318 319 319 319 319 319 318 317 317 317 316 316
336 333 335 336 336 335 338 339 339 338 340 337 335 336 336 339 326 327 326 323 316 313 314 316 321 329 333 330 328 326 324 322 317 311 312 313 314 316 317 318 318 318 317 316 318 318 317 317 317
333 329 334 334 333 333 337 338 338 339 338 330 335 333 329 327 326 326 324 317 313 311 312 313 315 328 333 330 327 324 323 321 317 314 311 311 310 312 316 317 316 314 315 316 317 318 318 317 318
332 334 331 336 336 336 337 337 339 338 337 332 333 329 327 326 325 324 321 315 312 311 311 311 314 328 332 331 325 324 323 320 318 315 312 310 311 312 315 314 314 315 316 316 315 315 314 313 317
334 332 334 336 336 337 338 338 339 339 339 338 335 334 327 325 324 324 322 316 313 311 311 311 311 322 327 326 325 324 322 319 318 315 314 311 310 311 313 313 312 313 315 313 310 312 309 310 316
334 334 335 336 336 338 339 339 339 338 339 339 331 329 328 326 325 324 324 319 315 311 311 311 311 317 323 325 325 324 320 318 316 317 315 311 309 310 312 311 311 311 310 311 311 308 308 311 314
334 333 334 336 336 338 339 339 339 340 338 335 329 329 329 329 328 326 326 323 317 313 310 310 311 311 317 323 324 322 318 317 317 319 318 314 310 309 309 309 310 309 311 310 308 308 308 310 313
334 334 332 336 336 338 339 340 340 340 338 334 330 330 331 330 328 329 328 328 322 317 312 310 310 310 312 319 319 316 317 318 320 320 319 317 310 308 308 310 310 311 310 308 308 309 309 310 312
334 331 336 333 338 339 339 342 339 339 335 330 331 332 333 332 332 330 329 329 327 322 317 311 310 310 313 316 316 318 319 319 320 321 319 319 315 312 310 309 309 309 310 307 307 309 309 310 310
328 333 335 337 337 339 337 339 335 338 333 329 332 334 333 331 331 331 331 329 329 327 320 317 310 309 314 316 318 319 319 320 320 321 320 319 317 316 316 313 309 310 310 309 307 309 309 310 312
328 334 334 336 334 338 340 341 337 337 331 331 333 335 334 333 335 333 331 330 329 330 325 321 316 310 312 316 318 319 319 320 320 321 320 320 318 318 317 317 313 310 310 311 308 309 310 310 316
328 332 334 332 334 338 339 340 335 339 337 334 331 333 334 335 335 334 331 330 329 330 330 322 323 311 311 314 316 319 319 320 320 320 320 320 318 319 318 317 316 311 311 312 310 308 310 310 314
333 334 334 333 334 335 334 334 335 337 340 339 339 336 336 336 336 334 331 329 330 331 330 326 326 321 311 312 315 319 319 320 321 321 321 320 319 319 319 318 317 313 312 313 312 311 310 311 312
332 333 332 334 335 334 330 330 333 338 340 341 341 341 340 340 339 337 333 332 330 331 331 330 327 327 316 311 313 316 319 319 320 321 321 320 320 319 319 318 317 314 312 313 313 312 312 311 310
331 328 332 335 332 334 328 333 330 336 336 339 340 341 341 341 341 340 339 337 332 332 332 332 329 330 323 313 312 315 316 319 321 321 321 321 319 319 319 318 317 315 313 313 313 313 312 312 312
330 331 332 333 333 332 333 332 333 335 334 333 333 339 340 340 340 339 340 340 334 332 333 333 330 330 327 318 313 315 316 319 321 320 320 319 319 319 319 319 318 317 316 314 314 314 313 313 313
331 329 325 327 328 332 333 334 334 333 333 331 332 333 332 333 333 335 336 334 333 332 335 326 332 331 330 323 316 313 315 317 317 316 318 318 320 320 320 319 319 318 317 316 314 314 313 314 313
327 326 330 332 331 332 330 337 333 330 330 332 332 333 333 334 335 335 336 334 335 336 334 326 327 332 331 327 320 316 315 315 314 316 317 318 318 318 317 318 318 317 317 317 315 314 314 314 314
330 328 329 335 332 330 329 338 332 330 332 332 333 334 334 333 333 334 336 335 335 335 335 330 327 332 332 329 323 320 318 318 318 317 316 317 317 317 318 318 318 317 317 317 316 316 315 315 315
331 330 327 327 326 328 326 328 326 332 331 333 333 334 333 332 332 334 335 335 335 336 335 333 331 334 333 329 326 322 321 321 320 320 319 319 319 319 319 319 320 318 318 318 318 317 316 316 316
329 327 330 325 331 333 329 331 330 331 331 332 332 332 332 331 333 334 335 336 336 336 336 335 335 334 334 330 327 324 323 322 321 321 320 321 321 320 321 320 320 320 318 317 317 318 317 317 317
330 330 328 324 326 332 334 331 325 330 329 330 331 332 331 332 333 334 334 335 336 336 336 337 336 335 334 331 328 325 323 323 322 321 321 321 321 321 321 321 321 320 319 318 318 318 318 318 318
328 329 326 328 329 329 329 331 330 330 330 330 331 332 331 331 332 335 335 335 335 334 334 335 336 335 334 331 329 325 324 324 323 321 320 321 321 321 321 320 319 319 319 320 320 320 320 320 320
Wind_Speed
7 9 9 4 4 5 2 4 1 2 2 2 7 5 6 1 0 2 10 8 8 7 7 7 5 4 4 5 6 8 9 10 10 9 9 8 8 9 11 13 15 16 15 14 14 14 13 12 12
6 6 4 3 5 4 4 2 1 1 9 19 14 8 6 3 5 11 11 9 4 6 6 6 6 5 5 5 5 7 9 11 10 9 9 8 8 9 11 13 14 14 13 13 12 11 10 11 11
9 6 4 4 4 3 2 4 4 8 7 1 5 6 4 3 6 7 9 6 4 4 5 4 5 5 5 4 5 9 12 12 8 6 7 6 7 9 11 11 10 10 10 9 7 8 9 10 10
2 4 7 5 3 1 3 5 8 3 7 7 9 6 6 3 4 8 10 6 4 2 2 3 5 5 5 4 6 9 14 12 9 8 7 7 7 8 9 9 9 10 10 11 11 9 7 6 7
4 4 5 5 3 2 2 8 3 1 2 1 5 3 5 9 11 11 8 6 2 2 2 2 3 4 4 5 5 11 13 14 11 8 8 7 7 7 8 6 7 9 9 10 10 9 6 6 6
3 3 5 2 2 3 3 5 3 5 5 9 8 5 4 9 10 10 7 3 3 4 5 5 5 4 6 5 7 10 12 14 15 12 9 8 9 8 7 5 7 8 8 8 10 8 7 6 5
5 4 2 3 2 2 3 2 3 3 3 4 2 3 3 10 8 7 5 3 4 6 5 6 7 6 4 4 6 9 12 15 18 13 8 7 9 11 9 8 8 7 9 11 12 12 10 9 8
4 6 3 2 3 2 6 3 10 4 3 9 7 6 6 15 10 7 2 4 7 9 8 7 6 5 4 6 6 7 12 16 17 12 7 8 10 11 10 11 13 14 15 16 14 12 12 10 8
3 4 3 7 6 5 10 5 7 3 6 2 3 9 12 16 12 5 5 7 9 10 10 8 5 6 7 6 7 9 11 15 15 12 8 8 10 10 10 12 14 16 16 14 12 11 11 10 8
3 4 7 8 6 5 11 7 10 7 7 2 9 13 19 16 11 6 7 8 9 10 11 11 6 6 8 8 7 8 10 15 14 13 12 11 10 10 11 13 15 15 12 11 13 14 13 11 7
1 3 4 6 10 9 12 8 9 10 3 12 23 24 21 16 11 8 7 8 8 10 11 10 6 5 10 9 7 7 10 14 13 12 13 13 13 11 11 13 14 12 12 14 15 14 14 12 9
1 1 6 6 11 16 12 7 3 18 5 15 18 19 20 16 12 8 6 8 8 8 7 7 6 6 7 7 7 8 11 12 12 11 14 14 13 12 13 14 16 14 15 17 18 14 14 10 9
1 2 6 5 13 13 12 14 6 20 6 15 22 22 19 16 13 9 6 8 8 8 7 7 5 7 9 9 10 11 12 10 10 11 15 14 13 13 12 15 15 15 16 17 18 18 14 9 9
2 5 2 5 12 10 6 2 3 14 13 18 22 21 18 16 12 11 9 8 7 9 8 7 6 6 9 10 11 11 8 8 7 11 17 18 16 15 14 15 16 15 16 19 20 18 14 11 8
5 4 4 1 7 2 5 5 13 16 23 24 24 22 19 18 15 15 11 10 7 9 9 7 5 5 6 8 10 8 4 5 6 10 14 17 16 16 16 16 15 16 18 19 17 15 13 11 10
5 5 2 3 11 3 10 11 15 18 28 29 28 25 25 23 20 16 15 14 10 9 8 9 6 5 5 8 7 3 1 3 6 8 13 16 15 16 16 16 16 16 18 18 17 15 13 12 9
5 3 5 6 12 4 6 9 7 23 29 28 31 29 28 27 25 23 21 18 13 10 8 8 8 6 5 8 8 7 5 4 6 7 10 13 12 14 17 18 16 17 17 18 17 16 15 13 8
4 4 4 5 7 6 7 22 4 17 25 27 32 31 31 31 32 27 23 21 17 13 9 7 10 8 7 8 11 11 10 7 7 8 9 11 11 12 16 18 18 16 16 16 16 15 13 13 5
2 3 4 3 4 6 11 13 9 16 23 17 25 35 36 35 33 32 29 25 22 18 13 8 9 8 7 9 9 11 11 10 9 8 10 10 11 12 15 18 20 17 15 16 17 16 14 11 5
3 3 5 1 2 4 0 10 2 7 18 24 28 33 36 37 37 36 33 31 29 22 14 10 9 9 7 9 10 11 11 13 11 11 11 11 11 12 12 15 18 16 14 13 14 16 15 15 13
3 4 1 2 2 2 5 7 4 3 4 18 28 31 34 38 40 41 39 36 33 26 17 13 10 9 7 8 10 12 15 15 15 13 12 11 11 12 12 14 17 16 13 13 13 14 15 15 13
4 3 5 4 4 2 3 4 4 3 7 9 22 29 37 38 38 39 42 44 37 29 17 15 14 12 9 9 11 12 14 15 15 14 14 12 12 11 11 13 15 16 14 13 12 11 12 13 14
3 4 5 3 3 1 5 3 7 5 6 6 15 27 27 31 35 42 45 39 38 27 11 15 19 17 13 10 11 13 14 15 15 15 15 12 12 12 12 12 14 14 14 13 11 12 12 13 12
6 4 7 4 3 4 5 3 6 3 4 8 8 14 16 22 24 24 26 28 27 21 18 11 24 20 15 10 10 12 11 13 16 17 16 13 13 13 13 13 14 14 13 14 12 12 12 14 14
4 6 3 4 5 4 4 2 8 6 5 4 13 21 25 27 29 21 15 23 20 22 24 8 11 25 15 9 9 8 8 10 11 12 12 14 14 13 9 12 13 13 14 14 13 12 13 16 16
3 4 5 1 1 5 4 4 5 4 3 5 9 15 19 26 30 25 13 15 17 21 26 10 16 21 16 9 7 8 8 8 8 10 11 11 11 10 9 12 13 13 14 15 16 17 17 17 19
1 2 3 6 3 2 3 7 7 2 1 5 9 14 20 26 29 26 12 9 12 20 22 12 13 12 13 8 7 6 7 8 7 9 10 11 11 11 12 13 14 15 16 17 18 20 20 20 21
2 4 3 3 0 3 5 5 5 4 6 3 7 16 21 22 27 25 13 8 6 14 18 13 3 4 5 8 9 8 9 8 9 10 11 12 11 12 13 14 16 17 17 18 19 21 21 23 24
1 1 5 4 4 4 2 7 5 5 7 6 6 11 16 18 22 18 12 5 5 10 21 24 10 1 3 8 7 10 11 12 12 13 13 13 14 14 16 16 18 18 19 18 21 23 24 25 27
1 3 5 5 4 2 4 6 3 3 6 3 4 8 12 15 16 13 9 5 3 7 15 25 20 10 6 4 7 11 14 15 16 13 13 13 16 17 17 18 19 19 19 20 22 24 25 29 31
Wind_Direction
134 126 113 89 56 65 57 12 63 47 62 80 118 124 125 75 98 166 132 122 108 64 74 65 51 28 6 1 1 357 351 346 339 336 329 327 335 334 331 330 322 315 308 302 295 292 288 283 279
98 102 94 93 78 55 313 346 39 309 119 98 96 104 70 55 84 128 132 132 106 92 74 51 40 26 13 13 6 3 352 344 334 326 316 322 334 336 333 330 327 324 315 304 293 290 285 283 286
58 31 31 79 98 125 114 41 32 143 131 153 114 89 91 114 121 122 131 125 118 84 55 37 27 15 5 349 352 4 356 339 329 324 313 324 332 337 340 340 351 2 7 360 335 301 289 285 289
22 65 63 68 83 226 139 149 151 126 85 124 116 79 86 69 94 130 143 137 123 57 356 3 8 360 350 339 347 358 4 355 339 320 316 319 321 330 341 348 24 22 16 14 8 360 338 315 287
27 71 65 83 15 5 83 138 187 325 332 87 117 97 68 83 127 134 141 136 162 274 283 331 340 337 323 318 336 354 4 5 357 330 318 319 308 322 334 348 7 8 6 7 3 5 359 352 337
46 64 56 71 51 7 37 77 44 44 67 88 88 77 55 115 149 139 150 167 206 262 270 274 271 274 295 308 326 348 2 0 359 342 315 317 312 324 326 317 338 353 354 360 0 347 325 322 322
81 66 71 97 79 46 146 66 69 63 40 18 102 68 121 154 163 157 174 211 268 292 284 295 290 277 276 294 327 355 355 359 358 353 332 319 320 328 333 327 318 335 326 325 330 320 312 312 302
79 91 69 8 185 177 149 141 153 162 197 140 141 172 182 176 169 171 194 293 304 308 314 317 307 269 266 296 323 341 350 358 1 358 335 320 318 317 311 313 320 317 322 322 321 316 309 304 299
104 69 154 193 170 201 167 143 170 229 161 184 210 189 185 172 177 186 263 291 311 322 324 330 320 243 249 279 313 327 347 356 2 2 350 334 318 306 303 307 314 316 317 318 318 315 315 313 292
87 103 213 185 183 183 167 167 170 161 161 108 147 170 168 176 186 223 272 300 316 326 325 327 319 240 243 283 293 328 344 351 359 358 360 347 333 315 312 317 320 321 320 320 315 311 307 303 285
107 172 166 209 176 168 158 178 167 164 225 191 166 170 179 186 197 232 285 320 326 328 318 315 310 246 246 273 292 322 334 345 355 357 358 353 347 335 319 323 332 334 327 322 321 314 310 296 281
324 280 171 177 186 158 162 173 219 188 235 218 193 180 182 193 209 242 299 316 325 315 313 323 304 275 245 249 286 313 327 338 346 358 359 354 349 335 330 335 337 333 328 328 331 328 322 308 278
56 347 203 203 182 174 173 184 188 199 267 196 184 184 192 201 217 235 280 301 314 328 334 322 302 255 261 271 289 307 316 330 342 360 1 358 353 345 335 337 342 340 333 332 336 336 330 316 275
95 66 358 177 168 174 165 0 218 222 207 186 190 196 207 219 234 243 260 302 322 338 329 317 301 272 262 270 279 294 303 325 351 8 2 3 357 350 345 344 341 345 347 343 341 339 335 325 308
79 71 6 96 174 188 170 266 230 220 193 191 198 209 219 232 240 251 254 282 307 328 326 317 307 286 263 258 271 282 291 335 2 3 1 4 2 2 360 356 356 353 354 350 348 346 341 325 315
61 38 34 254 159 211 157 263 223 212 188 194 202 212 223 233 242 247 253 261 273 299 320 317 311 296 255 242 257 247 321 333 348 346 352 1 4 8 11 1 358 357 358 360 355 355 357 347 330
17 205 210 329 197 139 189 277 325 199 194 196 207 216 228 236 241 242 246 251 260 277 305 325 319 296 254 237 246 254 257 292 299 313 334 351 1 7 9 7 2 358 360 2 4 2 0 2 2
209 221 224 216 213 191 213 253 335 202 200 204 209 222 230 241 247 246 247 248 249 259 281 313 319 304 263 249 254 261 262 274 289 290 310 337 348 358 2 3 2 360 359 2 7 11 12 8 30
191 198 244 225 212 156 231 266 251 239 219 218 221 225 232 243 251 252 246 247 245 244 257 291 313 301 274 266 269 263 270 265 278 291 290 314 328 341 350 357 359 358 357 2 11 11 18 26 23
148 255 268 114 12 160 68 268 331 283 223 215 227 235 240 247 252 254 253 246 244 242 248 269 292 304 291 282 272 262 264 258 264 275 277 300 319 327 334 346 355 356 356 358 3 13 15 20 24
217 201 107 58 45 89 347 313 350 333 239 222 237 249 251 255 258 258 254 252 246 239 244 269 283 296 304 283 273 266 264 270 271 279 275 291 306 319 322 337 350 354 351 350 354 5 16 20 16
332 243 122 117 60 278 11 279 314 306 296 246 244 249 254 259 263 265 260 251 244 239 242 266 270 285 305 295 280 275 264 275 281 281 278 294 303 310 310 324 343 353 348 346 351 353 360 5 13
291 61 92 96 130 107 354 56 275 338 315 283 261 261 266 272 276 276 265 257 245 224 224 261 273 276 287 303 292 282 285 283 284 289 283 299 305 314 310 307 329 341 350 344 344 358 357 350 348
120 55 39 53 70 21 334 84 294 299 290 308 313 319 323 330 328 319 268 249 236 220 218 184 262 258 270 300 311 295 292 291 291 291 287 301 307 312 320 305 317 324 330 341 330 333 347 348 342
85 65 353 3 8 241 300 22 246 289 311 272 298 322 335 344 350 347 285 239 222 205 198 146 234 248 250 277 309 307 308 309 300 302 301 305 309 314 324 313 312 313 318 320 330 320 316 317 320
40 138 145 231 263 270 318 244 262 230 303 318 319 329 340 347 355 357 315 261 223 203 191 209 203 236 240 250 290 317 324 327 312 317 306 309 321 320 320 317 322 309 309 314 307 305 308 308 307
189 42 148 105 25 40 263 295 319 272 279 347 342 340 342 354 358 358 336 272 225 200 190 237 250 247 234 236 269 300 321 329 334 334 330 330 332 331 325 321 320 315 311 308 304 303 303 299 296
134 146 34 14 163 287 291 285 244 310 292 303 327 330 352 3 7 9 2 329 261 229 199 230 281 70 227 242 261 306 305 314 328 324 332 335 336 328 323 321 318 316 313 309 305 303 302 298 299
83 340 58 116 124 175 272 276 225 259 278 217 272 332 349 5 10 6 4 331 286 232 231 233 253 316 283 244 273 314 310 298 306 318 328 328 326 329 323 321 316 315 313 310 302 302 303 302 302
142 177 133 121 242 160 149 273 281 279 319 212 302 341 352 1 6 3 0 354 287 271 244 233 245 267 336 283 280 318 311 301 298 315 330 328 324 326 327 323 321 321 320 318 311 309 309 305 304